When you browse on this site, cookies collect data to enhance your experience and personalize the content and advertising you see.
Visit our Privacy Policy to learn more. By continuing to use the site, you agree to this use of cookies and data.
  • In Hungary
  • List of Countries
  • For 7 days
  • Water Temperature
  • Satellite Maps
  • Weather Map
  • News
  • Weather Widgets
  • user-avatar
    Login

    Hourly Weather Karlovo

    Today, 15 December, Saturday

    Time Temperature Precipitation Wind Pressure Humidity
    00:00 -3°C° 0 mm 1 mps 650 mmHg 95%
    01:00 -3°C° 0 mm 1 mps 650 mmHg 95%
    02:00 -2°C° 0 mm 1 mps 650 mmHg 95%
    03:00 -2°C° 0 mm 1 mps 650 mmHg 95%
    04:00 -2°C° 0 mm 1 mps 650 mmHg 95%
    05:00 -2°C° 0 mm 1 mps 650 mmHg 95%
    06:00 -2°C° 0 mm 1 mps 650 mmHg 95%
    07:00 -2°C° 0 mm 1 mps 649 mmHg 95%
    08:00 -2°C° 0 mm 1 mps 649 mmHg 95%
    09:00 -1°C° 0 mm 1 mps 650 mmHg 91%
    10:00 +1°C° 0 mm 1 mps 650 mmHg 88%
    11:00 +2°C° 0 mm 1 mps 651 mmHg 84%
    12:00 +2°C° 0 mm 1 mps 651 mmHg 83%
    13:00 +3°C° 0 mm 1 mps 651 mmHg 82%
    14:00 +3°C° 0 mm 2 mps 651 mmHg 80%
    15:00 +3°C° 0 mm 1 mps 650 mmHg 85%
    16:00 +2°C° 0 mm 1 mps 650 mmHg 89%
    17:00 +1°C° 0 mm 1 mps 649 mmHg 94%
    18:00 +2°C° 0 mm 1 mps 649 mmHg 95%
    19:00 +2°C° 0 mm 1 mps 649 mmHg 95%
    20:00 +1°C° 0 mm 2 mps 649 mmHg 96%
    21:00 +1°C° 0.1 mm 2 mps 649 mmHg 96%
    22:00 +1°C° 0.1 mm 2 mps 649 mmHg 96%
    23:00 +1°C° 0.1 mm 2 mps 649 mmHg 95%

    Tomorrow, 16 December, Sunday

    Time Temperature Precipitation Wind Pressure Humidity
    00:00 +1°C° 0.1 mm 2 mps 649 mmHg 95%
    01:00 +1°C° 0.1 mm 2 mps 649 mmHg 95%
    02:00 +1°C° 0.1 mm 2 mps 649 mmHg 95%
    03:00 +1°C° 0.1 mm 2 mps 649 mmHg 95%
    04:00 +1°C° 0.1 mm 2 mps 649 mmHg 96%
    05:00 +1°C° 0.1 mm 2 mps 648 mmHg 96%
    06:00 +2°C° 0.2 mm 1 mps 648 mmHg 96%
    07:00 +2°C° 0.2 mm 1 mps 648 mmHg 96%
    08:00 +2°C° 0.2 mm 1 mps 649 mmHg 96%
    09:00 +1°C° 0.3 mm 2 mps 649 mmHg 94%
    10:00 +2°C° 0.3 mm 2 mps 649 mmHg 93%
    11:00 +2°C° 0.3 mm 2 mps 649 mmHg 91%
    12:00 +1°C° 1 mm 2 mps 649 mmHg 91%
    13:00 +1°C° 1 mm 2 mps 649 mmHg 90%
    14:00 0°C° 1 mm 3 mps 649 mmHg 90%
    15:00 -1°C° 1.6 mm 3 mps 649 mmHg 90%
    16:00 -2°C° 1.6 mm 3 mps 649 mmHg 90%
    17:00 -2°C° 1.6 mm 3 mps 649 mmHg 90%
    18:00 -4°C° 1.5 mm 3 mps 649 mmHg 89%
    19:00 -3°C° 1.5 mm 2 mps 650 mmHg 89%
    20:00 -3°C° 1.5 mm 2 mps 650 mmHg 88%
    21:00 -4°C° 0.5 mm 2 mps 650 mmHg 88%
    22:00 -4°C° 0.5 mm 2 mps 650 mmHg 88%
    23:00 -2°C° 0.5 mm 1 mps 650 mmHg 87%

    Day after tomorrow, 17 December, Monday

    Time Temperature Precipitation Wind Pressure Humidity
    00:00 -2°C° 0.1 mm 1 mps 650 mmHg 87%
    01:00 -2°C° 0.1 mm 1 mps 651 mmHg 87%
    02:00 -2°C° 0.1 mm 1 mps 651 mmHg 87%
    03:00 -2°C° 0 mm 1 mps 650 mmHg 87%
    04:00 -2°C° 0 mm 1 mps 650 mmHg 86%
    05:00 -2°C° 0 mm 1 mps 650 mmHg 86%
    06:00 -2°C° 0 mm 1 mps 650 mmHg 86%
    07:00 -2°C° 0 mm 1 mps 650 mmHg 86%
    08:00 -2°C° 0 mm 1 mps 650 mmHg 86%
    09:00 -1°C° 0 mm 1 mps 650 mmHg 85%
    10:00 -1°C° 0 mm 1 mps 651 mmHg 85%
    11:00 0°C° 0 mm 1 mps 651 mmHg 84%
    12:00 +1°C° 0 mm 1 mps 651 mmHg 84%
    13:00 +1°C° 0 mm 1 mps 650 mmHg 85%
    14:00 +1°C° 0 mm 1 mps 650 mmHg 85%
    15:00 0°C° 0.2 mm 1 mps 650 mmHg 87%
    16:00 0°C° 0.2 mm 1 mps 650 mmHg 90%
    17:00 -1°C° 0.2 mm 1 mps 650 mmHg 92%
    18:00 -1°C° 0.3 mm 1 mps 650 mmHg 92%
    19:00 -1°C° 0.3 mm 1 mps 650 mmHg 91%
    20:00 -1°C° 0.3 mm 1 mps 650 mmHg 91%
    21:00 -1°C° 0.1 mm 1 mps 650 mmHg 90%
    22:00 -2°C° 0.1 mm 1 mps 650 mmHg 90%
    23:00 -2°C° 0.1 mm 1 mps 650 mmHg 89%

    18 December, Tuesday

    Time Temperature Precipitation Wind Pressure Humidity
    00:00 -2°C° 0 mm 1 mps 650 mmHg 89%
    01:00 -2°C° 0 mm 1 mps 650 mmHg 88%
    02:00 -2°C° 0 mm 1 mps 650 mmHg 88%
    03:00 -4°C° 0.1 mm 2 mps 650 mmHg 87%
    04:00 -5°C° 0.1 mm 2 mps 650 mmHg 86%
    05:00 -5°C° 0.1 mm 2 mps 650 mmHg 86%
    06:00 -5°C° 0.1 mm 2 mps 650 mmHg 85%
    07:00 -5°C° 0.1 mm 2 mps 650 mmHg 85%
    08:00 -5°C° 0.1 mm 2 mps 650 mmHg 84%
    09:00 -5°C° 0.2 mm 2 mps 651 mmHg 84%
    10:00 -5°C° 0.2 mm 2 mps 651 mmHg 84%
    11:00 -5°C° 0.2 mm 2 mps 651 mmHg 84%
    12:00 -5°C° 0.3 mm 2 mps 651 mmHg 84%
    13:00 -6°C° 0.3 mm 3 mps 651 mmHg 85%
    14:00 -6°C° 0.3 mm 3 mps 651 mmHg 85%
    15:00 -6°C° 0.4 mm 3 mps 651 mmHg 85%
    16:00 -5°C° 0.4 mm 2 mps 651 mmHg 86%
    17:00 -6°C° 0.4 mm 2 mps 651 mmHg 87%
    18:00 -6°C° 0.2 mm 2 mps 651 mmHg 87%
    19:00 -6°C° 0.2 mm 2 mps 651 mmHg 87%
    20:00 -6°C° 0.2 mm 2 mps 652 mmHg 88%
    21:00 -6°C° 0.1 mm 2 mps 652 mmHg 88%
    22:00 -6°C° 0.1 mm 2 mps 652 mmHg 88%
    23:00 -6°C° 0.1 mm 2 mps 652 mmHg 88%

    19 December, Wednesday

    Time Temperature Precipitation Wind Pressure Humidity
    00:00 -6°C° 0.1 mm 2 mps 652 mmHg 88%
    01:00 -6°C° 0.1 mm 2 mps 652 mmHg 88%
    02:00 -7°C° 0.1 mm 2 mps 652 mmHg 88%
    03:00 -7°C° 0.1 mm 2 mps 652 mmHg 89%
    04:00 -7°C° 0.1 mm 2 mps 652 mmHg 89%
    05:00 -7°C° 0.1 mm 2 mps 651 mmHg 89%
    06:00 -7°C° 0.2 mm 2 mps 652 mmHg 89%
    07:00 -6°C° 0.2 mm 1 mps 652 mmHg 89%
    08:00 -6°C° 0.2 mm 1 mps 652 mmHg 89%
    09:00 -4°C° 0.2 mm 1 mps 652 mmHg 88%
    10:00 -4°C° 0.2 mm 1 mps 653 mmHg 86%
    11:00 -4°C° 0.2 mm 1 mps 653 mmHg 84%
    12:00 -3°C° 0.2 mm 1 mps 653 mmHg 83%
    13:00 -3°C° 0.2 mm 1 mps 652 mmHg 83%
    14:00 -3°C° 0.2 mm 1 mps 652 mmHg 82%
    15:00 -3°C° 0.1 mm 1 mps 652 mmHg 84%
    16:00 -4°C° 0.1 mm 1 mps 652 mmHg 86%
    17:00 -6°C° 0.1 mm 1 mps 652 mmHg 88%
    18:00 -6°C° 0.1 mm 1 mps 653 mmHg 88%
    19:00 -6°C° 0.1 mm 1 mps 653 mmHg 88%
    20:00 -7°C° 0.1 mm 1 mps 653 mmHg 88%
    21:00 -7°C° 0 mm 1 mps 653 mmHg 88%
    22:00 -7°C° 0 mm 1 mps 653 mmHg 87%
    23:00 -7°C° 0 mm 1 mps 653 mmHg 87%

    20 December, Thursday

    Time Temperature Precipitation Wind Pressure Humidity
    00:00 -8°C° 0 mm 1 mps 653 mmHg 87%
    01:00 -8°C° 0 mm 1 mps 653 mmHg 86%
    02:00 -8°C° 0 mm 1 mps 653 mmHg 86%
    03:00 -8°C° 0 mm 1 mps 653 mmHg 85%
    04:00 -8°C° 0 mm 1 mps 653 mmHg 85%
    05:00 -8°C° 0 mm 1 mps 653 mmHg 85%
    06:00 -8°C° 0 mm 1 mps 653 mmHg 85%
    07:00 -8°C° 0 mm 1 mps 654 mmHg 85%
    08:00 -8°C° 0 mm 1 mps 654 mmHg 85%
    09:00 -7°C° 0 mm 1 mps 654 mmHg 84%
    10:00 -6°C° 0 mm 1 mps 655 mmHg 82%
    11:00 -3°C° 0 mm 1 mps 655 mmHg 81%
    12:00 -3°C° 0 mm 1 mps 655 mmHg 81%
    13:00 -2°C° 0 mm 1 mps 655 mmHg 81%
    14:00 -2°C° 0 mm 1 mps 655 mmHg 81%
    15:00 -3°C° 0 mm 1 mps 654 mmHg 83%
    16:00 -4°C° 0 mm 1 mps 654 mmHg 86%
    17:00 -6°C° 0 mm 1 mps 654 mmHg 88%
    18:00 -7°C° 0 mm 1 mps 654 mmHg 88%
    19:00 -7°C° 0 mm 1 mps 654 mmHg 88%
    20:00 -7°C° 0 mm 1 mps 654 mmHg 87%
    21:00 -7°C° 0 mm 1 mps 654 mmHg 87%
    22:00 -7°C° 0 mm 1 mps 654 mmHg 87%
    23:00 -7°C° 0 mm 1 mps 654 mmHg 87%
    Show more